ACA1173 CYDF-CYYZ

Flight info

Callsign ACA1173
Flight time N/A
Altitude 36000
Route HITOR ANATI POLTY IMEBA9
Aircraft B38M/M-SDE1FGHILORVWXY/HB1

Departure

Time N/A
Airport Deer Lake Airport (CYDF)

Arrival

Time 2026-05-05 01:02
Airport Toronto Pearson International Airport (CYYZ)
Time Latitude Longitude Altitude Speed Heading
2026-05-05 00:08 46.54052 -73.83152 37711 ft 417 kts 249°
2026-05-05 00:09 46.51656 -73.90831 37705 ft 417 kts 249°
2026-05-05 00:09 46.49264 -73.98470 37708 ft 416 kts 249°
2026-05-05 00:10 46.46867 -74.06103 37704 ft 415 kts 249°
2026-05-05 00:10 46.44485 -74.13665 37699 ft 415 kts 249°
2026-05-05 00:11 46.42086 -74.21260 37696 ft 414 kts 249°
2026-05-05 00:11 46.39685 -74.28837 37698 ft 413 kts 249°
2026-05-05 00:12 46.37286 -74.36389 37695 ft 413 kts 249°
2026-05-05 00:12 46.34884 -74.43924 37689 ft 412 kts 249°
2026-05-05 00:13 46.32482 -74.51439 37687 ft 411 kts 249°
2026-05-05 00:13 46.30077 -74.58941 37686 ft 411 kts 249°
2026-05-05 00:14 46.27670 -74.66429 37681 ft 410 kts 249°
2026-05-05 00:14 46.25276 -74.73851 37668 ft 410 kts 249°
2026-05-05 00:15 46.22852 -74.81350 37664 ft 409 kts 249°
2026-05-05 00:15 46.20453 -74.88745 37659 ft 409 kts 249°
2026-05-05 00:16 46.18040 -74.96165 37659 ft 408 kts 249°
2026-05-05 00:16 46.15626 -75.03567 37657 ft 408 kts 249°
2026-05-05 00:17 46.13207 -75.10959 37649 ft 407 kts 248°
2026-05-05 00:17 46.10787 -75.18338 37655 ft 407 kts 248°
2026-05-05 00:18 46.08364 -75.25707 37650 ft 406 kts 248°
2026-05-05 00:18 46.05941 -75.33058 37646 ft 406 kts 248°
2026-05-05 00:19 46.03517 -75.40395 37639 ft 406 kts 248°
2026-05-05 00:19 46.01092 -75.47713 37642 ft 405 kts 248°
2026-05-05 00:20 45.98663 -75.55023 37638 ft 404 kts 248°
2026-05-05 00:20 45.96232 -75.62320 37634 ft 404 kts 248°
2026-05-05 00:21 45.93817 -75.69549 37628 ft 404 kts 248°
2026-05-05 00:21 45.91383 -75.76818 37616 ft 403 kts 248°
2026-05-05 00:22 45.88795 -75.83970 37615 ft 407 kts 237°
2026-05-05 00:22 45.85493 -75.90575 37626 ft 407 kts 240°
2026-05-05 00:23 45.82300 -75.97291 37619 ft 407 kts 240°
2026-05-05 00:23 45.79121 -76.04007 37615 ft 407 kts 240°
2026-05-05 00:24 45.75944 -76.10712 37615 ft 407 kts 240°
2026-05-05 00:24 45.72763 -76.17409 37611 ft 406 kts 240°
2026-05-05 00:25 45.69584 -76.24087 37613 ft 406 kts 240°
2026-05-05 00:25 45.66401 -76.30756 37615 ft 406 kts 240°
2026-05-05 00:26 45.63219 -76.37406 37613 ft 405 kts 240°
2026-05-05 00:26 45.60058 -76.44001 37611 ft 405 kts 240°
2026-05-05 00:27 45.56872 -76.50629 37617 ft 404 kts 240°
2026-05-05 00:27 45.53690 -76.57234 37611 ft 404 kts 240°
2026-05-05 00:28 45.50511 -76.63819 37614 ft 403 kts 240°
2026-05-05 00:28 45.47326 -76.70400 37614 ft 403 kts 240°
2026-05-05 00:29 45.44141 -76.76965 37613 ft 402 kts 240°
2026-05-05 00:29 45.40961 -76.83507 37616 ft 402 kts 240°
2026-05-05 00:30 45.37776 -76.90042 37624 ft 401 kts 240°
2026-05-05 00:30 45.34593 -76.96559 37624 ft 401 kts 240°
2026-05-05 00:31 45.31406 -77.03069 37630 ft 401 kts 240°
2026-05-05 00:31 45.28219 -77.09564 37624 ft 401 kts 239°
2026-05-05 00:32 45.25027 -77.16054 37627 ft 401 kts 239°
2026-05-05 00:32 45.21835 -77.22530 37632 ft 400 kts 239°
2026-05-05 00:33 45.18639 -77.29000 37629 ft 400 kts 239°
2026-05-05 00:33 45.15441 -77.35457 37627 ft 400 kts 239°
2026-05-05 00:34 45.12263 -77.41863 37634 ft 400 kts 239°
2026-05-05 00:34 45.09057 -77.48307 37558 ft 401 kts 239°
2026-05-05 00:34 45.07453 -77.51527 37302 ft 399 kts 239°
2026-05-05 00:35 45.05855 -77.54731 37054 ft 399 kts 239°
2026-05-05 00:35 45.04256 -77.57933 36794 ft 399 kts 239°
2026-05-05 00:35 45.02662 -77.61122 36422 ft 397 kts 240°
2026-05-05 00:35 45.01068 -77.64307 35934 ft 397 kts 240°
2026-05-05 00:36 44.99471 -77.67496 35426 ft 397 kts 240°
2026-05-05 00:36 44.97874 -77.70679 34850 ft 397 kts 240°
2026-05-05 00:36 44.96276 -77.73863 34285 ft 397 kts 240°
2026-05-05 00:36 44.94675 -77.77050 33734 ft 398 kts 240°
2026-05-05 00:37 44.93073 -77.80233 33116 ft 398 kts 240°
2026-05-05 00:37 44.91467 -77.83421 32493 ft 399 kts 240°
2026-05-05 00:37 44.89855 -77.86619 31892 ft 401 kts 240°
2026-05-05 00:37 44.88238 -77.89825 31293 ft 402 kts 239°
2026-05-05 00:38 44.86603 -77.93018 30715 ft 401 kts 238°
2026-05-05 00:38 44.85482 -77.95084 30339 ft 399 kts 237°
2026-05-05 00:38 44.83803 -77.98179 29773 ft 396 kts 237°
2026-05-05 00:38 44.82141 -78.01255 29049 ft 394 kts 237°
2026-05-05 00:39 44.80481 -78.04332 28304 ft 394 kts 237°
2026-05-05 00:39 44.78290 -78.08388 27414 ft 391 kts 237°
2026-05-05 00:39 44.76645 -78.11430 26767 ft 389 kts 237°
2026-05-05 00:39 44.75541 -78.13470 26347 ft 388 kts 237°
2026-05-05 00:40 44.73908 -78.16484 25737 ft 386 kts 237°
2026-05-05 00:40 44.72289 -78.19471 25191 ft 383 kts 237°
2026-05-05 00:40 44.70681 -78.22434 24665 ft 379 kts 237°
2026-05-05 00:40 44.69085 -78.25370 24148 ft 376 kts 237°
2026-05-05 00:41 44.67505 -78.28277 23646 ft 373 kts 237°
2026-05-05 00:41 44.65953 -78.31126 23130 ft 371 kts 237°
2026-05-05 00:41 44.64387 -78.33998 22561 ft 368 kts 237°
2026-05-05 00:41 44.62840 -78.36835 22040 ft 364 kts 236°
2026-05-05 00:42 44.61308 -78.39640 21570 ft 359 kts 236°
2026-05-05 00:42 44.59797 -78.42404 21111 ft 355 kts 236°
2026-05-05 00:42 44.58302 -78.45137 20656 ft 351 kts 236°
2026-05-05 00:42 44.56819 -78.47845 20204 ft 348 kts 236°
2026-05-05 00:43 44.55350 -78.50526 19764 ft 345 kts 236°
2026-05-05 00:43 44.53894 -78.53179 19336 ft 342 kts 236°
2026-05-05 00:43 44.52450 -78.55808 18906 ft 339 kts 235°
2026-05-05 00:43 44.51017 -78.58415 18484 ft 336 kts 235°
2026-05-05 00:44 44.49596 -78.60999 18070 ft 334 kts 235°
2026-05-05 00:44 44.48180 -78.63569 17608 ft 332 kts 235°
2026-05-05 00:44 44.46795 -78.66084 17180 ft 329 kts 235°
2026-05-05 00:44 44.45413 -78.68591 16927 ft 321 kts 235°
2026-05-05 00:45 44.44065 -78.71031 16656 ft 314 kts 235°
2026-05-05 00:45 44.42741 -78.73428 16311 ft 310 kts 235°
2026-05-05 00:45 44.41430 -78.75798 15942 ft 306 kts 235°
2026-05-05 00:45 44.40130 -78.78147 15558 ft 304 kts 235°
2026-05-05 00:46 44.38842 -78.80473 15189 ft 301 kts 235°
2026-05-05 00:46 44.37562 -78.82783 14815 ft 299 kts 235°
2026-05-05 00:46 44.36287 -78.85080 14441 ft 299 kts 235°
2026-05-05 00:46 44.35001 -78.87395 14069 ft 304 kts 235°
2026-05-05 00:47 44.33698 -78.89742 13677 ft 306 kts 235°
2026-05-05 00:47 44.32391 -78.92092 13283 ft 306 kts 235°
2026-05-05 00:47 44.31087 -78.94434 12860 ft 304 kts 235°
2026-05-05 00:47 44.29794 -78.96756 12465 ft 302 kts 234°
2026-05-05 00:48 44.28511 -78.99059 12084 ft 299 kts 234°
2026-05-05 00:48 44.27237 -79.01344 11702 ft 297 kts 234°
2026-05-05 00:48 44.25972 -79.03611 11329 ft 294 kts 234°
2026-05-05 00:48 44.24682 -79.05817 10940 ft 293 kts 230°
2026-05-05 00:49 44.23291 -79.07890 10582 ft 291 kts 230°
2026-05-05 00:49 44.21938 -79.09922 10452 ft 281 kts 230°
2026-05-05 00:49 44.20637 -79.11886 10300 ft 271 kts 230°
2026-05-05 00:49 44.19380 -79.13789 10169 ft 262 kts 230°
2026-05-05 00:50 44.18167 -79.15627 10024 ft 254 kts 230°
2026-05-05 00:50 44.16978 -79.17430 9735 ft 252 kts 230°
2026-05-05 00:50 44.15798 -79.19220 9431 ft 251 kts 230°
2026-05-05 00:50 44.14620 -79.21003 9098 ft 249 kts 230°
2026-05-05 00:51 44.13450 -79.22776 8787 ft 247 kts 230°
2026-05-05 00:51 44.12290 -79.24530 8533 ft 244 kts 230°
2026-05-05 00:51 44.11165 -79.26231 8403 ft 235 kts 230°
2026-05-05 00:51 44.10079 -79.27873 8274 ft 226 kts 230°
2026-05-05 00:52 44.09046 -79.29433 8150 ft 218 kts 230°
2026-05-05 00:52 44.08000 -79.31005 8060 ft 219 kts 227°
2026-05-05 00:52 44.06692 -79.32108 7814 ft 227 kts 201°
2026-05-05 00:52 44.05120 -79.32362 7618 ft 233 kts 189°
2026-05-05 00:53 44.03501 -79.32467 7409 ft 233 kts 189°
2026-05-05 00:53 44.01882 -79.32557 7197 ft 233 kts 188°
2026-05-05 00:53 44.00262 -79.32639 6974 ft 233 kts 188°
2026-05-05 00:53 43.98620 -79.32714 6758 ft 232 kts 188°
2026-05-05 00:54 43.97030 -79.32783 6549 ft 230 kts 188°
2026-05-05 00:54 43.95440 -79.32850 6331 ft 227 kts 188°
2026-05-05 00:54 43.93875 -79.32913 6115 ft 224 kts 188°
2026-05-05 00:54 43.92314 -79.32976 5906 ft 225 kts 188°
2026-05-05 00:55 43.90786 -79.33268 5652 ft 217 kts 207°
2026-05-05 00:55 43.89606 -79.34452 5421 ft 207 kts 226°
2026-05-05 00:55 43.88572 -79.35845 5261 ft 206 kts 226°
2026-05-05 00:55 43.87565 -79.37229 5058 ft 201 kts 227°
2026-05-05 00:56 43.86596 -79.38588 4873 ft 195 kts 227°
2026-05-05 00:56 43.85662 -79.39914 4701 ft 192 kts 227°
2026-05-05 00:56 43.84727 -79.41250 4525 ft 193 kts 227°
2026-05-05 00:56 43.83792 -79.42594 4350 ft 194 kts 227°
2026-05-05 00:57 43.82857 -79.43940 4161 ft 193 kts 227°
2026-05-05 00:57 43.81932 -79.45278 3946 ft 191 kts 227°
2026-05-05 00:57 43.81023 -79.46586 3766 ft 191 kts 227°
2026-05-05 00:57 43.80104 -79.47912 3536 ft 190 kts 227°
2026-05-05 00:58 43.79202 -79.49226 3353 ft 185 kts 227°
2026-05-05 00:58 43.78340 -79.50485 3140 ft 176 kts 227°
2026-05-05 00:58 43.77516 -79.51688 2904 ft 167 kts 226°
2026-05-05 00:58 43.76780 -79.52763 2688 ft 144 kts 226°
2026-05-05 00:59 43.76095 -79.53763 2499 ft 143 kts 226°
2026-05-05 00:59 43.75415 -79.54758 2316 ft 141 kts 226°
2026-05-05 00:59 43.74738 -79.55745 2115 ft 142 kts 226°
2026-05-05 00:59 43.74055 -79.56741 1931 ft 145 kts 225°
2026-05-05 01:00 43.73370 -79.57742 1768 ft 139 kts 224°
2026-05-05 01:00 43.72716 -79.58695 1549 ft 135 kts 224°
2026-05-05 01:00 43.72070 -79.59641 1369 ft 135 kts 225°
2026-05-05 01:00 43.71424 -79.60584 1163 ft 137 kts 224°
2026-05-05 01:01 43.70753 -79.61554 1001 ft 142 kts 225°
2026-05-05 01:01 43.70081 -79.62536 805 ft 137 kts 225°
2026-05-05 01:01 43.69437 -79.63474 629 ft 134 kts 225°
2026-05-05 01:01 43.68837 -79.64341 566 ft 104 kts 226°
2026-05-05 01:02 43.68511 -79.64817 569 ft 46 kts 226°
2026-05-05 01:02 43.68302 -79.65054 571 ft 32 kts 201°
2026-05-05 01:02 43.68158 -79.65111 568 ft 14 kts 184°
2026-05-05 01:02 43.68118 -79.65090 571 ft 0 kts 136°
2026-05-05 01:03 43.68111 -79.65080 573 ft 4 kts 135°
2026-05-05 01:03 43.68103 -79.65011 573 ft 9 kts 60°
2026-05-05 01:03 43.68149 -79.64936 574 ft 11 kts 46°
2026-05-05 01:04 43.68222 -79.64831 575 ft 21 kts 46°
2026-05-05 01:04 43.68450 -79.64499 574 ft 21 kts 46°
2026-05-05 01:04 43.68558 -79.64343 569 ft 24 kts 46°
2026-05-05 01:05 43.68673 -79.64177 569 ft 24 kts 46°
2026-05-05 01:05 43.68758 -79.64054 573 ft 8 kts 46°
2026-05-05 01:05 43.68794 -79.64001 572 ft 7 kts 46°
2026-05-05 01:05 43.68832 -79.63945 577 ft 9 kts 46°
2026-05-05 01:06 43.68891 -79.63861 575 ft 16 kts 46°
2026-05-05 01:06 43.68952 -79.63772 572 ft 2 kts 46°
2026-05-05 01:06 43.68957 -79.63766 572 ft 0 kts 46°
2026-05-05 01:07 43.68987 -79.63721 575 ft 13 kts 46°
2026-05-05 01:08 43.69029 -79.63620 571 ft 14 kts 111°
2026-05-05 01:08 43.68956 -79.63515 568 ft 17 kts 136°
2026-05-05 01:08 43.68861 -79.63392 567 ft 20 kts 136°
2026-05-05 01:08 43.68754 -79.63252 565 ft 21 kts 136°
2026-05-05 01:09 43.68646 -79.63113 570 ft 22 kts 137°
2026-05-05 01:09 43.68532 -79.62962 565 ft 20 kts 136°
2026-05-05 01:09 43.68430 -79.62830 566 ft 21 kts 136°
2026-05-05 01:09 43.68327 -79.62694 567 ft 20 kts 137°
2026-05-05 01:10 43.68221 -79.62558 569 ft 22 kts 137°
2026-05-05 01:10 43.68105 -79.62410 572 ft 23 kts 136°
2026-05-05 01:10 43.67995 -79.62267 565 ft 19 kts 136°
2026-05-05 01:10 43.67916 -79.62161 572 ft 13 kts 123°
2026-05-05 01:11 43.67953 -79.62049 570 ft 15 kts 46°
2026-05-05 01:11 43.67992 -79.61951 567 ft 12 kts 74°
2026-05-05 01:11 43.68045 -79.61847 567 ft 14 kts 47°
2026-05-05 01:11 43.68054 -79.61748 570 ft 12 kts 136°
2026-05-05 01:12 43.68029 -79.61715 564 ft 3 kts 136°
2026-05-05 01:12 43.68029 -79.61714 564 ft 0 kts 136°